Location: Winthrop
(48.4780°N, 120.1850°W)
Time: 20:06:05
(UTC-07:00)

Explorer 7 - Pass Details

Date: 07 February 2023
Orbit: 478 x 657 km, 50.3° (Epoch: 25 March)

Event Time Altitude Azimuth Distance (km) Brightness Sun altitude
Rises 14:38:53 0° 287° (WNW) 2,759 10.7 18.8°
Reaches altitude 10° 14:41:04 10° 286° (WNW) 1,892 9.9 18.6°
Maximum altitude 14:45:25 82° 200° (SSW) 613 7.5 18.1°
Drops below altitude 10° 14:50:01 10° 113° (ESE) 1,998 9.6 17.6°
Sets 14:52:24 0° 112° (ESE) 2,928 10.3 17.4°
